Location: Bosdarros
(43.2167°N, 0.3667°W)
Time: 16:23:43
(UTC+00:00)

Cosmos 2219 Rocket - Pass Details

Date: 22 April 2021
Orbit: 826 x 848 km, 71.0° (Epoch: 12 May)

Event Time Altitude Azimuth Distance (km) Brightness Sun altitude
Rises 19:45:45 0° 330° (NNW) 3,420 6.4 -9.7°
Reaches altitude 10° 19:48:15 10° 326° (NW) 2,480 5.7 -10.1°
Maximum altitude 19:53:45 52° 252° (WSW) 1,045 3.0 -11.0°
Drops below altitude 10° 19:59:13 10° 177° (S) 2,458 4.3 -11.9°
Enters shadow 20:01:36 - 172° (S) 3,351 5.0 -12.3°
